Regional Weather Roundup
Issued by NWS

Home | Current Version | Previous Version | Text Only | Print | Product List | Glossary On
Versions: 1 2 3 4 5 6 7 8 9 10 11 12 13 14 15 16 17 18 19 20 21 22 23 24 25 26 27 28 29 30 31 32 33 34 35 36 37 38 39 40 41 42 43 44 45 46 47 48 49 50
000
ASUS43 KLSX 280707
RWRMO

WEATHER SUMMARY FOR MISSOURI
NATIONAL WEATHER SERVICE SPRINGFIELD MO
200 AM CDT SUN MAY 28 2017

NOTE: "FAIR" INDICATES FEW OR NO CLOUDS BELOW 12,000 FEET WITH NO
       SIGNIFICANT WEATHER AND/OR OBSTRUCTIONS TO VISIBILITY.
       CURRENT SKY AND/OR WEATHER CONDITIONS ARE NOT AVAILABLE FOR
       CHILLICOTHE AND FARMINGTON.

MOZ001>031-035>038-043-044-053-054-280800-
...NORTHERN AND WESTERN MISSOURI...

CITY           SKY/WX    TMP DP  RH WIND       PRES   REMARKS
KANSAS CTY INT CLOUDY    62  60  93 N8        29.89R
KANSAS C DTWN  CLOUDY    65  61  87 N5        29.88R
LEE`S SUMMIT   CLOUDY    64  62  93 N7        29.87F
ST JOSEPH      CLEAR     59  59 100 N6        29.91R
CHILLICOTHE      N/A     62  60  93 VRB3      29.87R
KIRKSVILLE     CLOUDY    61  60  97 NW6       29.84R

$$
MOZ066>068-077>081-088>096-101>105-280800-
...SOUTHWEST MISSOURI...

CITY           SKY/WX    TMP DP  RH WIND       PRES   REMARKS
SPRINGFIELD    CLOUDY    65  63  93 NW12      29.78F
JOPLIN         CLOUDY    66  65  96 N12       29.84S
BRANSON        CLOUDY    63  63 100 CALM      29.85R

$$
MOZ032>034-039>042-045>050-055>058-069>072-280800-
...CENTRAL MISSOURI...

CITY           SKY/WX    TMP DP  RH WIND       PRES   REMARKS
COLUMBIA       CLOUDY    60  60 100 SW3       29.81S
JEFFERSON CITY CLOUDY    63  60  90 E3        29.81F
ROLLA          FOG       58  58 100 S6        29.81F VSB 1/2
SEDALIA        CLOUDY    64  63  96 NW6       29.83F
WHITEMAN AFB   CLOUDY    62  62 100 N8        29.82F
WARRENSBURG    CLOUDY    61  59  94 NW7       29.84F

$$
MOZ051-052-059>065-280800-
...EAST CENTRAL MISSOURI...

CITY           SKY/WX    TMP DP  RH WIND       PRES   REMARKS
ST LOUIS INTL  CLOUDY    66  61  84 SW5       29.80R
SPIRIT OF STL  CLOUDY    63  62  97 S3        29.78F
ST CHARLES     CLOUDY    64  63  96 SW7       29.78S

$$
MOZ072>076-082>087-097>100-106>115-280800-
...SOUTH CENTRAL AND SOUTHEAST MISSOURI...

CITY           SKY/WX    TMP DP  RH WIND       PRES   REMARKS
CAPE GIRARDEAU CLOUDY    65  61  87 S13G25    29.77F
POPLAR BLUFF   LGT RAIN  64  63  96 SW12        N/A

$$


USA.gov is the U.S. government's official web portal to all federal, state and local government web resources and services.